Weather History for Marion, OH

Change the Weather History Date:

Monday, February 4, 2013

  Actual Average (KDLZ) Record (KDLZ)
Temperature  
Mean Temperature 18 °F -  
Max Temperature 27 °F 34 °F 61 °F (1962)
Min Temperature 10 °F 16 °F -15 °F (1985)
Degree Days  
Heating Degree Days 46    
Moisture  
Dew Point 18 °F    
Average Humidity 88    
Maximum Humidity 93    
Minimum Humidity 80    
Precipitation  
Precipitation 0.05 in - - ()
Sea Level Pressure  
Sea Level Pressure 29.94 in    
Wind  
Wind Speed 8 mph (South)    
Max Wind Speed 12 mph    
Max Gust Speed -    
Visibility 3 miles    
Events Fog , Snow    
Averages and records for this station are not official NWS values.
T = Trace of Precipitation, MM = Missing Value Source: NWS Daily Summary

Daily Weather History Graph

Daily Weather History Graph

Search for Another Location

Airport:

Trip Planner

Search our weather history database for the weather conditions in past years. The results will help you decide how hot, cold, wet, or windy it might be!

Date:

Astronomy

Feb. 04, 2013 Rise Set
Actual Time 7:38 AM EST 5:54 PM EST
Civil Twilight 7:10 AM EST 6:22 PM EST
Nautical Twilight 6:37 AM EST 6:55 PM EST
Astronomical Twilight 6:05 AM EST 7:27 PM EST
Moon 2:13 AM EST (2/4) 12:16 PM EST (2/4)
Length of Visible Light 11h 12m
Length of Day
10h 15m
Last Quarter, 37% of the Moon is Illuminated
Feb 4
Last Quarter
Feb 10
New
Feb 17
First Quarter
Feb 25
Full
Mar 4
Last Quarter

Hourly Weather History & Observations

Time (EST) Temp. Windchill Dew Point Humidity Pressure Visibility Wind Dir Wind Speed Gust Speed Precip Events Conditions
12:53 AM 14.0 °F 1.2 °F 9.0 °F 80% 30.11 in 9.0 mi SW 10.4 mph - N/A   Clear
1:53 AM 16.0 °F 6.3 °F 10.9 °F 81% 30.11 in 9.0 mi WSW 6.9 mph - N/A   Mostly Cloudy
2:53 AM 16.0 °F 6.3 °F 12.0 °F 84% 30.11 in 5.0 mi SW 6.9 mph - 0.00 in Snow Light Snow
3:03 AM 14.0 °F 3.9 °F 10.4 °F 86% 30.05 in 4.0 mi SW 6.9 mph - 0.00 in Snow Light Snow
3:13 AM 12.2 °F 1.7 °F 10.4 °F 92% 30.04 in 6.0 mi SW 6.9 mph - 0.00 in   Scattered Clouds
3:53 AM 10.9 °F 0.2 °F 8.1 °F 88% 30.10 in 7.0 mi SSW 6.9 mph - 0.00 in   Partly Cloudy
5:53 AM 16.0 °F 6.3 °F 12.0 °F 84% 30.09 in 3.0 mi SSW 6.9 mph - 0.00 in Snow Light Snow
6:53 AM 14.0 °F 2.9 °F 10.9 °F 88% 30.07 in 6.0 mi SSW 8.1 mph - 0.00 in   Overcast
7:53 AM 15.1 °F 4.2 °F 12.0 °F 88% 30.05 in 3.0 mi South 8.1 mph - 0.00 in Snow Light Snow
8:02 AM 15.8 °F 6.1 °F 12.2 °F 86% 29.99 in 2.0 mi SSW 6.9 mph - 0.00 in Snow Light Snow
8:21 AM 15.8 °F 5.1 °F 12.2 °F 86% 29.99 in 1.5 mi South 8.1 mph - 0.00 in Snow Light Snow
8:29 AM 15.8 °F 5.1 °F 12.2 °F 86% 29.99 in 1.0 mi South 8.1 mph - 0.00 in Snow Light Snow
8:53 AM 17.1 °F 8.7 °F 14.0 °F 88% 30.05 in 0.8 mi South 5.8 mph - 0.00 in Snow Light Snow
9:01 AM 17.6 °F 7.3 °F 14.0 °F 86% 29.99 in 1.0 mi South 8.1 mph - 0.01 in Snow Light Snow
9:10 AM 17.6 °F 8.2 °F 14.0 °F 86% 29.99 in 0.8 mi South 6.9 mph - 0.01 in Snow Light Snow
9:38 AM 17.6 °F 7.3 °F 15.8 °F 93% 29.98 in 1.2 mi South 8.1 mph - 0.01 in Snow Light Snow
9:53 AM 18.0 °F 7.7 °F 15.1 °F 88% 30.03 in 1.0 mi South 8.1 mph - 0.01 in Snow Light Snow
10:20 AM 19.4 °F 11.5 °F 15.8 °F 86% 29.97 in 0.8 mi South 5.8 mph - 0.01 in Snow Light Snow
10:53 AM 19.0 °F 12.3 °F 17.1 °F 92% 30.03 in 0.8 mi South 4.6 mph - 0.02 in Snow Light Snow
11:02 AM 19.4 °F 12.8 °F 17.6 °F 93% 29.97 in 1.0 mi South 4.6 mph - 0.00 in Snow Light Snow
11:26 AM 19.4 °F 10.4 °F 17.6 °F 93% 29.96 in 1.2 mi SE 6.9 mph - 0.00 in Snow Light Snow
11:40 AM 21.2 °F 12.6 °F 17.6 °F 86% 29.95 in 2.5 mi SE 6.9 mph - 0.00 in Snow Light Snow
11:50 AM 21.2 °F 12.6 °F 17.6 °F 86% 29.95 in 3.0 mi SE 6.9 mph - 0.00 in Snow Light Snow
11:53 AM 21.9 °F 12.5 °F 18.0 °F 85% 30.00 in 3.0 mi SE 8.1 mph - 0.00 in Snow Light Snow
12:11 PM 21.2 °F 10.9 °F 17.6 °F 86% 29.94 in 1.8 mi SSE 9.2 mph - 0.00 in Snow Light Snow
12:17 PM 21.2 °F 11.7 °F 17.6 °F 86% 29.93 in 1.0 mi SE 8.1 mph - 0.00 in Snow Light Snow
12:31 PM 21.2 °F 10.9 °F 17.6 °F 86% 29.92 in 0.8 mi SE 9.2 mph - 0.01 in Snow Light Snow
12:48 PM 21.2 °F 10.9 °F 17.6 °F 86% 29.91 in 1.0 mi SE 9.2 mph - 0.01 in Snow Light Snow
12:53 PM 21.9 °F 11.7 °F 18.0 °F 85% 29.96 in 1.0 mi SE 9.2 mph - 0.01 in Snow Light Snow
1:19 PM 21.2 °F 10.1 °F 19.4 °F 93% 29.89 in 0.8 mi SSE 10.4 mph - 0.00 in Snow Light Snow
1:26 PM 21.2 °F 10.9 °F 19.4 °F 93% 29.89 in 0.5 mi SE 9.2 mph - 0.00 in Fog , Snow Snow
1:53 PM 21.9 °F 12.5 °F 19.9 °F 92% 29.92 in 0.5 mi SSE 8.1 mph - 0.00 in Fog , Snow Light Snow
2:02 PM 23.0 °F 13.1 °F 19.4 °F 86% 29.86 in 1.0 mi SSE 9.2 mph - 0.00 in Snow Light Snow
2:07 PM 23.0 °F 13.1 °F 19.4 °F 86% 29.86 in 2.0 mi SSE 9.2 mph - 0.00 in Snow Light Snow
2:20 PM 23.0 °F 13.1 °F 19.4 °F 86% 29.85 in 1.0 mi SSE 9.2 mph - 0.00 in Snow Light Snow
2:35 PM 24.8 °F 15.3 °F 19.4 °F 80% 29.85 in 1.5 mi SSE 9.2 mph - 0.00 in Snow Light Snow
2:53 PM 24.1 °F 13.1 °F 21.0 °F 88% 29.89 in 1.2 mi South 11.5 mph - 0.00 in Snow Light Snow
3:45 PM 24.8 °F 14.6 °F 21.2 °F 86% 29.84 in 2.5 mi South 10.4 mph - 0.00 in Snow Light Snow
3:53 PM 24.1 °F 13.1 °F 21.0 °F 88% 29.90 in 3.0 mi South 11.5 mph - 0.00 in   Overcast
4:33 PM 24.8 °F 16.1 °F 21.2 °F 86% 29.84 in 1.8 mi South 8.1 mph - 0.00 in Snow Light Snow
4:46 PM 24.8 °F 16.9 °F 21.2 °F 86% 29.83 in 3.0 mi South 6.9 mph - 0.01 in Snow Light Snow
4:53 PM 24.1 °F 15.2 °F 21.0 °F 88% 29.88 in 6.0 mi South 8.1 mph - 0.01 in   Overcast
5:53 PM 25.0 °F 19.3 °F 21.9 °F 88% 29.89 in 9.0 mi South 4.6 mph - 0.00 in   Overcast
6:40 PM 24.8 °F 19.1 °F 21.2 °F 86% 29.83 in 9.0 mi South 4.6 mph - N/A   Overcast
6:53 PM 25.0 °F 18.1 °F 21.9 °F 88% 29.88 in 7.0 mi South 5.8 mph - 0.00 in Snow Light Snow
7:05 PM 24.8 °F 17.9 °F 21.2 °F 86% 29.83 in 8.0 mi South 5.8 mph - 0.00 in Snow Light Snow
7:53 PM 25.0 °F 18.1 °F 23.0 °F 92% 29.86 in 7.0 mi South 5.8 mph - 0.00 in   Overcast
8:28 PM 26.6 °F 21.2 °F 23.0 °F 86% 29.83 in 6.0 mi SSW 4.6 mph - N/A   Overcast
8:53 PM 26.1 °F 19.4 °F 23.0 °F 88% 29.89 in 6.0 mi SSW 5.8 mph - N/A   Overcast
9:27 PM 26.6 °F 20.0 °F 23.0 °F 86% 29.85 in 6.0 mi SW 5.8 mph - N/A   Overcast
9:44 PM 26.6 °F 20.0 °F 24.8 °F 93% 29.86 in 5.0 mi SW 5.8 mph - N/A   Overcast
9:53 PM 27.0 °F 21.6 °F 24.1 °F 89% 29.91 in 5.0 mi WSW 4.6 mph - N/A   Overcast
10:34 PM 26.6 °F 21.2 °F 24.8 °F 93% 29.86 in 5.0 mi NNW 4.6 mph - N/A   Overcast
10:53 PM 26.1 °F 21.9 °F 24.1 °F 92% 29.91 in 5.0 mi NNW 3.5 mph - N/A   Overcast
11:53 PM 25.0 °F 19.3 °F 23.0 °F 92% 29.88 in 4.0 mi NNE 4.6 mph - N/A   Overcast